Time,TemperatureF,DewpointF,PressureIn,WindDirection,WindDirectionDegrees,WindSpeedMPH,WindSpeedGustMPH,Humidity,HourlyPrecipIn,Conditions,Clouds,dailyrainin,SoftwareType,DateUTC
2013-06-01 00:03:00,69.0,-99.9,29.98,SW,235,5.0,-999.0,-999,-99.99,,,-99.99,,2013-06-01 04:03:00,
2013-06-01 00:13:00,69.0,-99.9,29.98,SW,235,5.0,-999.0,-999,-99.99,,,-99.99,,2013-06-01 04:13:00,
2013-06-01 00:23:00,68.0,-99.9,29.98,SW,231,6.0,-999.0,-999,-99.99,,,-99.99,,2013-06-01 04:23:00,
2013-06-01 00:33:00,68.0,-99.9,29.98,SW,231,6.0,-999.0,-999,-99.99,,,-99.99,,2013-06-01 04:33:00,
2013-06-01 00:42:00,67.0,-99.9,29.97,WSW,256,5.0,-999.0,-999,-99.99,,,-99.99,,2013-06-01 04:42:00,
2013-06-01 00:53:00,67.0,-99.9,29.97,WSW,256,5.0,-999.0,-999,-99.99,,,-99.99,,2013-06-01 04:53:00,
2013-06-01 01:02:00,67.0,-99.9,29.97,WSW,256,5.0,-999.0,-999,-99.99,,,-99.99,,2013-06-01 05:02:00,
2013-06-01 01:12:00,67.0,-99.9,29.97,WSW,256,5.0,-999.0,-999,-99.99,,,-99.99,,2013-06-01 05:12:00,
2013-06-01 01:22:00,67.0,-99.9,29.98,SW,232,4.0,-999.0,-999,-99.99,,,-99.99,,2013-06-01 05:22:00,
2013-06-01 01:32:00,67.0,-99.9,29.98,SW,232,4.0,-999.0,-999,-99.99,,,-99.99,,2013-06-01 05:32:00,
2013-06-01 01:43:00,67.0,-99.9,29.98,SW,232,4.0,-999.0,-999,-99.99,,,-99.99,,2013-06-01 05:43:00,
2013-06-01 01:52:00,66.0,-99.9,29.97,SW,228,7.0,-999.0,-999,-99.99,,,-99.99,,2013-06-01 05:52:00,
2013-06-01 02:01:00,66.0,-99.9,29.97,SW,228,7.0,-999.0,-999,-99.99,,,-99.99,,2013-06-01 06:01:00,
2013-06-01 02:12:00,65.0,-99.9,29.96,WSW,240,6.0,-999.0,-999,-99.99,,,-99.99,,2013-06-01 06:12:00,
2013-06-01 02:22:00,65.0,-99.9,29.96,WSW,240,6.0,-999.0,-999,-99.99,,,-99.99,,2013-06-01 06:22:00,
2013-06-01 02:32:00,65.0,-99.9,29.96,WSW,240,6.0,-999.0,-999,-99.99,,,-99.99,,2013-06-01 06:32:00,
2013-06-01 02:42:00,65.0,-99.9,29.96,WSW,240,6.0,-999.0,-999,-99.99,,,-99.99,,2013-06-01 06:42:00,
2013-06-01 02:52:00,65.0,-99.9,29.96,SW,234,5.0,-999.0,-999,-99.99,,,-99.99,,2013-06-01 06:52:00,
2013-06-01 03:01:00,65.0,-99.9,29.96,SW,234,5.0,-999.0,-999,-99.99,,,-99.99,,2013-06-01 07:01:00,
2013-06-01 03:11:00,65.0,-99.9,29.96,SW,234,5.0,-999.0,-999,-99.99,,,-99.99,,2013-06-01 07:11:00,
2013-06-01 03:22:00,64.0,-99.9,29.96,SW,234,6.0,-999.0,-999,-99.99,,,-99.99,,2013-06-01 07:22:00,
2013-06-01 03:32:00,64.0,-99.9,29.96,SW,234,6.0,-999.0,-999,-99.99,,,-99.99,,2013-06-01 07:32:00,
2013-06-01 03:42:00,64.0,-99.9,29.96,SW,234,6.0,-999.0,-999,-99.99,,,-99.99,,2013-06-01 07:42:00,
2013-06-01 03:52:00,64.0,-99.9,29.95,SW,233,4.0,-999.0,-999,-99.99,,,-99.99,,2013-06-01 07:52:00,
2013-06-01 04:02:00,64.0,-99.9,29.95,SW,233,4.0,-999.0,-999,-99.99,,,-99.99,,2013-06-01 08:02:00,
2013-06-01 04:11:00,63.0,-99.9,29.95,SW,221,6.0,-999.0,-999,-99.99,,,-99.99,,2013-06-01 08:11:00,
2013-06-01 04:22:00,63.0,-99.9,29.95,SW,221,6.0,-999.0,-999,-99.99,,,-99.99,,2013-06-01 08:22:00,
2013-06-01 04:32:00,63.0,-99.9,29.95,SW,221,6.0,-999.0,-999,-99.99,,,-99.99,,2013-06-01 08:32:00,
2013-06-01 04:42:00,64.0,-99.9,29.96,SSW,205,5.0,-999.0,-999,-99.99,,,-99.99,,2013-06-01 08:42:00,
2013-06-01 04:52:00,64.0,-99.9,29.96,SSW,205,5.0,-999.0,-999,-99.99,,,-99.99,,2013-06-01 08:52:00,
2013-06-01 05:02:00,64.0,-99.9,29.96,SSW,205,5.0,-999.0,-999,-99.99,,,-99.99,,2013-06-01 09:02:00,
2013-06-01 05:12:00,64.0,-99.9,29.96,SW,228,4.0,-999.0,-999,-99.99,,,-99.99,,2013-06-01 09:12:00,
2013-06-01 05:22:00,64.0,-99.9,29.96,SW,228,4.0,-999.0,-999,-99.99,,,-99.99,,2013-06-01 09:22:00,
2013-06-01 05:33:00,64.0,-99.9,29.96,SW,228,4.0,-999.0,-999,-99.99,,,-99.99,,2013-06-01 09:33:00,
2013-06-01 05:43:00,64.0,-99.9,29.96,SSW,193,4.0,-999.0,-999,-99.99,,,-99.99,,2013-06-01 09:43:00,
2013-06-01 05:53:00,64.0,-99.9,29.96,SSW,193,4.0,-999.0,-999,-99.99,,,-99.99,,2013-06-01 09:53:00,
2013-06-01 06:02:00,64.0,-99.9,29.96,SSW,193,4.0,-999.0,-999,-99.99,,,-99.99,,2013-06-01 10:02:00,
2013-06-01 06:13:00,64.0,-99.9,29.96,SSW,193,4.0,-999.0,-999,-99.99,,,-99.99,,2013-06-01 10:13:00,
2013-06-01 06:22:00,64.0,-99.9,29.97,SW,231,5.0,-999.0,-999,-99.99,,,-99.99,,2013-06-01 10:22:00,
2013-06-01 06:33:00,64.0,-99.9,29.97,SW,231,5.0,-999.0,-999,-99.99,,,-99.99,,2013-06-01 10:33:00,
2013-06-01 06:42:00,64.0,-99.9,29.97,SW,231,5.0,-999.0,-999,-99.99,,,-99.99,,2013-06-01 10:42:00,
2013-06-01 06:53:00,65.0,-99.9,29.97,WSW,252,4.0,-999.0,-999,-99.99,,,-99.99,,2013-06-01 10:53:00,
2013-06-01 07:03:00,65.0,-99.9,29.97,WSW,252,4.0,-999.0,-999,-99.99,,,-99.99,,2013-06-01 11:03:00,
2013-06-01 07:11:00,65.0,-99.9,29.97,WSW,252,4.0,-999.0,-999,-99.99,,,-99.99,,2013-06-01 11:11:00,
2013-06-01 07:22:00,66.0,-99.9,29.97,South,180,4.0,-999.0,-999,-99.99,,,-99.99,,2013-06-01 11:22:00,
2013-06-01 07:33:00,66.0,-99.9,29.97,South,180,4.0,-999.0,-999,-99.99,,,-99.99,,2013-06-01 11:33:00,
2013-06-01 07:42:00,68.0,-99.9,29.96,SW,233,5.0,-999.0,-999,-99.99,,,-99.99,,2013-06-01 11:42:00,
2013-06-01 07:52:00,68.0,-99.9,29.96,SW,233,5.0,-999.0,-999,-99.99,,,-99.99,,2013-06-01 11:52:00,
2013-06-01 08:01:00,68.0,-99.9,29.96,SW,233,5.0,-999.0,-999,-99.99,,,-99.99,,2013-06-01 12:01:00,
2013-06-01 08:12:00,68.0,-99.9,29.96,SW,233,5.0,-999.0,-999,-99.99,,,-99.99,,2013-06-01 12:12:00,
2013-06-01 08:22:00,70.0,-99.9,29.97,WSW,254,8.0,-999.0,-999,-99.99,,,-99.99,,2013-06-01 12:22:00,
2013-06-01 08:32:00,70.0,-99.9,29.97,WSW,254,8.0,-999.0,-999,-99.99,,,-99.99,,2013-06-01 12:32:00,
2013-06-01 08:42:00,68.0,-99.9,29.97,SW,230,10.0,-999.0,-999,-99.99,,,-99.99,,2013-06-01 12:42:00,
2013-06-01 08:52:00,68.0,-99.9,29.97,SW,230,10.0,-999.0,-999,-99.99,,,-99.99,,2013-06-01 12:52:00,
2013-06-01 09:01:00,68.0,-99.9,29.97,SW,230,10.0,-999.0,-999,-99.99,,,-99.99,,2013-06-01 13:01:00,
2013-06-01 09:12:00,68.0,-99.9,29.97,SW,230,10.0,-999.0,-999,-99.99,,,-99.99,,2013-06-01 13:12:00,
2013-06-01 09:22:00,71.0,-99.9,29.97,SW,220,10.0,-999.0,-999,-99.99,,,-99.99,,2013-06-01 13:22:00,
2013-06-01 09:32:00,71.0,-99.9,29.97,SW,220,10.0,-999.0,-999,-99.99,,,-99.99,,2013-06-01 13:32:00,
2013-06-01 09:42:00,71.0,-99.9,29.97,SW,216,8.0,-999.0,-999,-99.99,,,-99.99,,2013-06-01 13:42:00,
2013-06-01 09:52:00,71.0,-99.9,29.97,SW,216,8.0,-999.0,-999,-99.99,,,-99.99,,2013-06-01 13:52:00,
2013-06-01 10:02:00,71.0,-99.9,29.97,SW,216,8.0,-999.0,-999,-99.99,,,-99.99,,2013-06-01 14:02:00,
2013-06-01 10:11:00,75.0,-99.9,29.96,SW,235,10.0,-999.0,-999,-99.99,,,-99.99,,2013-06-01 14:11:00,
2013-06-01 10:22:00,75.0,-99.9,29.96,SW,235,10.0,-999.0,-999,-99.99,,,-99.99,,2013-06-01 14:22:00,
2013-06-01 10:32:00,75.0,-99.9,29.96,SW,235,10.0,-999.0,-999,-99.99,,,-99.99,,2013-06-01 14:32:00,
2013-06-01 10:42:00,75.0,-99.9,29.96,SW,228,9.0,-999.0,-999,-99.99,,,-99.99,,2013-06-01 14:42:00,
2013-06-01 10:52:00,75.0,-99.9,29.96,SW,228,9.0,-999.0,-999,-99.99,,,-99.99,,2013-06-01 14:52:00,
2013-06-01 11:02:00,75.0,-99.9,29.96,SW,228,9.0,-999.0,-999,-99.99,,,-99.99,,2013-06-01 15:02:00,
2013-06-01 11:11:00,75.0,-99.9,29.96,SW,228,9.0,-999.0,-999,-99.99,,,-99.99,,2013-06-01 15:11:00,
2013-06-01 11:22:00,74.0,-99.9,29.97,SW,223,11.0,-999.0,-999,-99.99,,,-99.99,,2013-06-01 15:22:00,
2013-06-01 11:33:00,74.0,-99.9,29.97,SW,223,11.0,-999.0,-999,-99.99,,,-99.99,,2013-06-01 15:33:00,
2013-06-01 11:43:00,74.0,-99.9,29.97,SW,223,11.0,-999.0,-999,-99.99,,,-99.99,,2013-06-01 15:43:00,
2013-06-01 11:54:00,72.0,-99.9,29.97,SSW,208,9.0,-999.0,-999,-99.99,,,-99.99,,2013-06-01 15:54:00,
2013-06-01 12:03:00,72.0,-99.9,29.97,SSW,208,9.0,-999.0,-999,-99.99,,,-99.99,,2013-06-01 16:03:00,
2013-06-01 12:13:00,72.0,-99.9,29.97,SSW,208,9.0,-999.0,-999,-99.99,,,-99.99,,2013-06-01 16:13:00,
2013-06-01 12:23:00,76.0,-99.9,29.96,SW,228,10.0,-999.0,-999,-99.99,,,-99.99,,2013-06-01 16:23:00,
2013-06-01 12:33:00,76.0,-99.9,29.96,SW,228,10.0,-999.0,-999,-99.99,,,-99.99,,2013-06-01 16:33:00,
2013-06-01 12:43:00,77.0,-99.9,29.96,SW,233,11.0,-999.0,-999,-99.99,,,-99.99,,2013-06-01 16:43:00,
2013-06-01 12:53:00,77.0,-99.9,29.96,SW,233,11.0,-999.0,-999,-99.99,,,-99.99,,2013-06-01 16:53:00,
2013-06-01 13:02:00,77.0,-99.9,29.96,SW,233,11.0,-999.0,-999,-99.99,,,-99.99,,2013-06-01 17:02:00,
2013-06-01 13:12:00,77.0,-99.9,29.96,SW,233,11.0,-999.0,-999,-99.99,,,-99.99,,2013-06-01 17:12:00,
2013-06-01 13:22:00,74.0,-99.9,29.95,WSW,243,8.0,-999.0,-999,-99.99,,,-99.99,,2013-06-01 17:22:00,
2013-06-01 13:32:00,74.0,-99.9,29.95,WSW,243,8.0,-999.0,-999,-99.99,,,-99.99,,2013-06-01 17:32:00,
2013-06-01 13:43:00,77.0,-99.9,29.94,SW,234,10.0,-999.0,-999,-99.99,,,-99.99,,2013-06-01 17:43:00,
2013-06-01 13:52:00,77.0,-99.9,29.94,SW,234,10.0,-999.0,-999,-99.99,,,-99.99,,2013-06-01 17:52:00,
2013-06-01 14:02:00,77.0,-99.9,29.94,SW,234,10.0,-999.0,-999,-99.99,,,-99.99,,2013-06-01 18:02:00,
2013-06-01 14:12:00,77.0,-99.9,29.94,SW,234,10.0,-999.0,-999,-99.99,,,-99.99,,2013-06-01 18:12:00,
2013-06-01 14:22:00,77.0,-99.9,29.93,West,266,17.0,-999.0,-999,-99.99,,,-99.99,,2013-06-01 18:22:00,
2013-06-01 14:32:00,77.0,-99.9,29.93,West,266,17.0,-999.0,-999,-99.99,,,-99.99,,2013-06-01 18:32:00,
2013-06-01 14:42:00,77.0,-99.9,29.93,West,266,17.0,-999.0,-999,-99.99,,,-99.99,,2013-06-01 18:42:00,
2013-06-01 14:52:00,76.0,-99.9,29.94,West,262,17.0,-999.0,-999,-99.99,,,-99.99,,2013-06-01 18:52:00,
2013-06-01 15:02:00,76.0,-99.9,29.94,West,262,17.0,-999.0,-999,-99.99,,,-99.99,,2013-06-01 19:02:00,
2013-06-01 15:12:00,76.0,-99.9,29.94,West,262,17.0,-999.0,-999,-99.99,,,-99.99,,2013-06-01 19:12:00,
2013-06-01 15:22:00,75.0,-99.9,29.93,SW,233,13.0,-999.0,-999,-99.99,,,-99.99,,2013-06-01 19:22:00,
2013-06-01 15:32:00,75.0,-99.9,29.93,SW,233,13.0,-999.0,-999,-99.99,,,-99.99,,2013-06-01 19:32:00,
2013-06-01 15:42:00,75.0,-99.9,29.92,WSW,258,16.0,-999.0,-999,-99.99,,,-99.99,,2013-06-01 19:42:00,
2013-06-01 15:53:00,75.0,-99.9,29.92,WSW,258,16.0,-999.0,-999,-99.99,,,-99.99,,2013-06-01 19:53:00,
2013-06-01 16:02:00,75.0,-99.9,29.92,WSW,258,16.0,-999.0,-999,-99.99,,,-99.99,,2013-06-01 20:02:00,
2013-06-01 16:12:00,74.0,-99.9,29.91,WSW,248,12.0,-999.0,-999,-99.99,,,-99.99,,2013-06-01 20:12:00,
2013-06-01 16:22:00,74.0,-99.9,29.91,WSW,248,12.0,-999.0,-999,-99.99,,,-99.99,,2013-06-01 20:22:00,
2013-06-01 16:32:00,74.0,-99.9,29.91,WSW,248,12.0,-999.0,-999,-99.99,,,-99.99,,2013-06-01 20:32:00,
2013-06-01 16:42:00,74.0,-99.9,29.91,WSW,248,12.0,-999.0,-999,-99.99,,,-99.99,,2013-06-01 20:42:00,
2013-06-01 16:52:00,74.0,-99.9,29.92,West,270,14.0,-999.0,-999,-99.99,,,-99.99,,2013-06-01 20:52:00,
2013-06-01 17:02:00,74.0,-99.9,29.92,West,270,14.0,-999.0,-999,-99.99,,,-99.99,,2013-06-01 21:02:00,
2013-06-01 17:12:00,74.0,-99.9,29.92,West,270,14.0,-999.0,-999,-99.99,,,-99.99,,2013-06-01 21:12:00,
2013-06-01 17:22:00,73.0,-99.9,29.92,West,274,14.0,-999.0,-999,-99.99,,,-99.99,,2013-06-01 21:22:00,
2013-06-01 17:33:00,73.0,-99.9,29.92,West,274,14.0,-999.0,-999,-99.99,,,-99.99,,2013-06-01 21:33:00,
2013-06-01 17:43:00,73.0,-99.9,29.92,West,274,14.0,-999.0,-999,-99.99,,,-99.99,,2013-06-01 21:43:00,
2013-06-01 17:54:00,72.0,-99.9,29.92,West,275,18.0,-999.0,-999,-99.99,,,-99.99,,2013-06-01 21:54:00,
2013-06-01 18:03:00,72.0,-99.9,29.92,West,275,18.0,-999.0,-999,-99.99,,,-99.99,,2013-06-01 22:03:00,
2013-06-01 18:12:00,71.0,-99.9,29.91,West,263,18.0,-999.0,-999,-99.99,,,-99.99,,2013-06-01 22:12:00,
2013-06-01 18:23:00,71.0,-99.9,29.91,West,263,18.0,-999.0,-999,-99.99,,,-99.99,,2013-06-01 22:23:00,
2013-06-01 18:33:00,71.0,-99.9,29.91,West,263,18.0,-999.0,-999,-99.99,,,-99.99,,2013-06-01 22:33:00,
2013-06-01 18:42:00,71.0,-99.9,29.91,West,263,18.0,-999.0,-999,-99.99,,,-99.99,,2013-06-01 22:42:00,
2013-06-01 18:53:00,70.0,-99.9,29.91,West,268,18.0,-999.0,-999,-99.99,,,-99.99,,2013-06-01 22:53:00,
2013-06-01 19:02:00,70.0,-99.9,29.91,West,268,18.0,-999.0,-999,-99.99,,,-99.99,,2013-06-01 23:02:00,
2013-06-01 19:12:00,70.0,-99.9,29.91,West,268,18.0,-999.0,-999,-99.99,,,-99.99,,2013-06-01 23:12:00,
2013-06-01 19:22:00,68.0,-99.9,29.90,West,260,18.0,-999.0,-999,-99.99,,,-99.99,,2013-06-01 23:22:00,
2013-06-01 19:32:00,68.0,-99.9,29.90,West,260,18.0,-999.0,-999,-99.99,,,-99.99,,2013-06-01 23:32:00,
2013-06-01 19:42:00,68.0,-99.9,29.90,West,260,18.0,-999.0,-999,-99.99,,,-99.99,,2013-06-01 23:42:00,
2013-06-01 19:52:00,68.0,-99.9,29.90,West,265,11.0,-999.0,-999,-99.99,,,-99.99,,2013-06-01 23:52:00,
2013-06-01 20:02:00,68.0,-99.9,29.90,West,265,11.0,-999.0,-999,-99.99,,,-99.99,,2013-06-02 00:02:00,
2013-06-01 20:11:00,68.0,-99.9,29.90,West,265,11.0,-999.0,-999,-99.99,,,-99.99,,2013-06-02 00:11:00,
2013-06-01 20:22:00,66.0,-99.9,29.91,West,269,16.0,-999.0,-999,-99.99,,,-99.99,,2013-06-02 00:22:00,
2013-06-01 20:32:00,66.0,-99.9,29.91,West,269,16.0,-999.0,-999,-99.99,,,-99.99,,2013-06-02 00:32:00,
2013-06-01 20:42:00,66.0,-99.9,29.91,West,265,14.0,-999.0,-999,-99.99,,,-99.99,,2013-06-02 00:42:00,
2013-06-01 20:52:00,66.0,-99.9,29.91,West,265,14.0,-999.0,-999,-99.99,,,-99.99,,2013-06-02 00:52:00,
2013-06-01 21:02:00,66.0,-99.9,29.91,West,265,14.0,-999.0,-999,-99.99,,,-99.99,,2013-06-02 01:02:00,
2013-06-01 21:11:00,66.0,-99.9,29.91,West,267,15.0,-999.0,-999,-99.99,,,-99.99,,2013-06-02 01:11:00,
2013-06-01 21:22:00,66.0,-99.9,29.91,West,267,15.0,-999.0,-999,-99.99,,,-99.99,,2013-06-02 01:22:00,
2013-06-01 21:32:00,66.0,-99.9,29.91,West,267,15.0,-999.0,-999,-99.99,,,-99.99,,2013-06-02 01:32:00,
2013-06-01 21:42:00,66.0,-99.9,29.92,West,270,16.0,-999.0,-999,-99.99,,,-99.99,,2013-06-02 01:42:00,
2013-06-01 21:52:00,66.0,-99.9,29.92,West,270,16.0,-999.0,-999,-99.99,,,-99.99,,2013-06-02 01:52:00,
2013-06-01 22:02:00,66.0,-99.9,29.92,West,270,16.0,-999.0,-999,-99.99,,,-99.99,,2013-06-02 02:02:00,
2013-06-01 22:12:00,66.0,-99.9,29.92,West,270,16.0,-999.0,-999,-99.99,,,-99.99,,2013-06-02 02:12:00,
2013-06-01 22:22:00,66.0,-99.9,29.92,West,270,12.0,-999.0,-999,-99.99,,,-99.99,,2013-06-02 02:22:00,
2013-06-01 22:32:00,66.0,-99.9,29.92,West,270,12.0,-999.0,-999,-99.99,,,-99.99,,2013-06-02 02:32:00,
2013-06-01 22:42:00,66.0,-99.9,29.92,West,270,12.0,-999.0,-999,-99.99,,,-99.99,,2013-06-02 02:42:00,
2013-06-01 22:52:00,66.0,-99.9,29.92,West,260,14.0,-999.0,-999,-99.99,,,-99.99,,2013-06-02 02:52:00,
2013-06-01 23:02:00,66.0,-99.9,29.92,West,260,14.0,-999.0,-999,-99.99,,,-99.99,,2013-06-02 03:02:00,
2013-06-01 23:11:00,66.0,-99.9,29.92,West,260,14.0,-999.0,-999,-99.99,,,-99.99,,2013-06-02 03:11:00,
2013-06-01 23:22:00,66.0,-99.9,29.92,WSW,246,15.0,-999.0,-999,-99.99,,,-99.99,,2013-06-02 03:22:00,
2013-06-01 23:33:00,66.0,-99.9,29.92,WSW,246,15.0,-999.0,-999,-99.99,,,-99.99,,2013-06-02 03:33:00,
2013-06-01 23:43:00,65.0,-99.9,29.92,West,278,13.0,-999.0,-999,-99.99,,,-99.99,,2013-06-02 03:43:00,
2013-06-01 23:53:00,65.0,-99.9,29.92,West,278,13.0,-999.0,-999,-99.99,,,-99.99,,2013-06-02 03:53:00,